Hourly Data Report for May 19, 2021

CARIBOU POINT (AUT)
NOVA SCOTIA
Current Station Operator: ECCC - MSC

45°46'00.000" N
62°41'00.000" W
2.40 m
8200774
71415
WBK

Download Data

Hourly Data (May 2021)
Hourly Data Report for May 19, 2021
TIME
LST
Temp Definition
°C
Dew Point Definition
°C
Rel Hum Definition
%
Precip. Amount Definition
mm

Wind Dir Definition
10's deg

Wind Spd Definition
km/h
Visibility Definition
km
Stn Press Definition
kPa
Hmdx Definition


Wind Chill Definition


Weather Definition


00:00 9.6 8.9 95 0.0 29 29   101.76     LegendNANA
01:00 8.6 8.0 96 0.0 32 25   101.79     LegendNANA
02:00 8.1 7.5 96 0.0 30 22   101.81     LegendNANA
03:00 7.8 7.0 94 0.0 31 23   101.86     LegendNANA
04:00 7.5 6.1 91 0.0 31 31   101.88     LegendNANA
05:00 7.7 6.6 93 0.0 30 16   101.96     LegendNANA
06:00 7.7 6.6 93 0.0 32 21   101.99     LegendNANA
07:00 7.7 7.2 96 0.0 32 12   102.02     LegendNANA
08:00 8.0 7.4 96 0.0 33 6   102.10     LegendNANA
09:00 8.1 7.2 94 0.0 31 13   102.12     LegendNANA
10:00 8.9 7.2 89 0.0 32 9   102.21     LegendNANA
11:00 9.4 7.3 86 0.0 35 8   102.30     LegendNANA
12:00 10.0 8.3 90 0.0 31 5   102.37     LegendNANA
13:00 9.8 7.7 86 0.0 35 15   102.44     LegendNANA
14:00 9.4 7.7 89 0.0 3 9   102.46     LegendNANA
15:00 9.4 7.7 89 0.0 4 9   102.52     LegendNANA
16:00 9.1 7.3 88 0.0 35 6   102.57     LegendNANA
17:00 9.0 7.2 88 0.0 2 3   102.64     LegendNANA
18:00 9.0 7.2 88 0.0 35 3   102.72     LegendNANA
19:00 8.9 7.2 89 0.0 32 1   102.75     LegendNANA
20:00 8.9 7.0 88 0.0 3 4   102.81     LegendNANA
21:00 8.8 7.0 89 0.0 2 5   102.85     LegendNANA
22:00 8.8 6.9 88 0.0 2 9   102.88     LegendNANA
23:00 8.8 7.6 92 0.0 1 8   102.94     LegendNANA

Notes on Data Quality.

Legend

  • E = Estimated
  • M = Missing
  • NA = Not Available*
  • [empty] = Indicates an unobserved value
Date modified: